{"data":{"norad_id":67267,"intl_designator":"2025-313V","name":"2025-313V","alt_names":[],"object_type":"PAYLOAD","status":"ACTIVE","operator":null,"country":"TBD","launch_date":"2025-12-28","launch_site_code":"VOSTO","launch_vehicle":null,"mission":null,"orbit_class":"UNKNOWN","rcs_meters":null,"size_class":null,"mass_kg":null,"dimensions":null,"purposes":[],"wikipedia_slug":null,"has_3d_model":false,"image_url":null,"decayed_at":null,"tle_current":{"epoch":"2026-09-20T11:49:45.412608Z","epoch_age_seconds":103697,"freshness":"FRESH","line1":"1 67267U 25313V   26263.49288672  .00007419  00000+0  29305-3 0  9999","line2":"2 67267  97.3862 337.0370 0013943  38.9766 321.2474 15.25711681 40483","mean_motion":15.25711681,"eccentricity":0.0013943,"inclination_deg":97.3862,"raan_deg":337.037,"arg_perigee_deg":38.9766,"mean_anomaly_deg":321.2474,"bstar":0.00029305,"rev_number":4048,"period_min":94.382183602093,"perigee_km":479.07486334067,"apogee_km":498.22358340317,"semimajor_km":6866.7862233719,"source":"CELESTRAK","updated_at":"2026-09-21T09:00:16.516234Z"}}}